Alajuela, Costa Rica

12:25 PM CST on April 28, 2017 (GMT -0600)
Alajuela

Weather History for 78762 - April, 2013

Change the Weather History Date:

Monday, April 22, 2013

  Actual Average Record
Temperature  
Mean Temperature 72 °F -  
Max Temperature 81 °F 82 °F - ()
Min Temperature 62 °F 65 °F - ()
Cooling Degree Days 6    
Growing Degree Days 22 (Base 50)    
Moisture  
Dew Point 62 °F    
Average Humidity 75    
Maximum Humidity 100    
Minimum Humidity 51    
Precipitation  
Precipitation 1.18 in 0.29 in - ()
Sea Level Pressure  
Sea Level Pressure 30.00 in    
Wind  
Wind Speed 6 mph ()    
Max Wind Speed 18 mph    
Max Gust Speed -    
Visibility 7.7 miles    
Events Rain , Thunderstorm    
T = Trace of Precipitation, MM = Missing Value Source: Averaged Metar Reports

Daily Weather History Graph

Daily Weather History Graph

Search for Another Location

Airport or City:

Trip Planner

Search our weather history database for the weather conditions in past years. The results will help you decide how hot, cold, wet, or windy it might be!

Date:

Astronomy

Apr. 22, 2013 Rise Set
Actual Time 5:23 AM CST 5:47 PM CST
Civil Twilight 5:01 AM CST 6:09 PM CST
Nautical Twilight 4:36 AM CST 6:34 PM CST
Astronomical Twilight 4:11 AM CST 6:59 PM CST
Moon 3:06 PM CST (4/22) 2:40 AM CST (4/22)
Length of Visible Light 13h 07m
Length of Day
12h 24m
Waxing Gibbous, 88% of the Moon is Illuminated
Apr 22
Waxing Gibbous
Apr 25
Full
May 2
Last Quarter
May 9
New
May 17
First Quarter

Hourly Weather History & Observations

Time (CST) Temp. Heat Index Dew Point Humidity Pressure Visibility Wind Dir Wind Speed Gust Speed Precip Events Conditions
12:00 AM 68 °F - 60 °F 69% 29.89 in 12 mi East 5.8 mph - -  
12:00 AM 68.0 °F - 60.8 °F 78% 30.04 in - East 5.8 mph - N/A   Clear
1:00 AM 68.0 °F - 60.8 °F 78% 30.03 in - ENE 4.6 mph - N/A   Clear
2:00 AM 66.2 °F - 59.0 °F 78% 30.02 in - ENE 4.6 mph - N/A   Clear
3:00 AM 63 °F - 59 °F 82% 29.88 in 12 mi ENE 5.8 mph - -  
3:00 AM 62.6 °F - 59.0 °F 88% 30.01 in - ENE 5.8 mph - N/A   Clear
4:00 AM 62.6 °F - 59.0 °F 88% 30.01 in - East 3.5 mph - N/A   Clear
5:00 AM 62.6 °F - 59.0 °F 88% 30.03 in - ENE 3.5 mph - N/A   Clear
6:00 AM 63 °F - 58 °F 80% 29.93 in 12 mi NE 8.1 mph - -   Clear
6:00 AM 62.6 °F - 59.0 °F 88% 30.04 in - NE 8.1 mph - N/A   Clear
7:00 AM 71.6 °F - 60.8 °F 69% 30.07 in - NNE 3.5 mph - N/A   Clear
8:00 AM 77.0 °F - 60.8 °F 57% 30.09 in - NNE 4.6 mph - N/A   Clear
9:00 AM 78 °F - 63 °F 51% 29.92 in 12 mi WSW 9.2 mph - -   Scattered Clouds
9:00 AM 77.0 °F - 62.6 °F 61% 30.09 in 6.2 mi WSW 9.2 mph - N/A   Scattered Clouds
10:00 AM 80.6 °F 81.8 °F 62.6 °F 54% 30.08 in 6.2 mi West 6.9 mph - N/A   Scattered Clouds
11:00 AM 78.8 °F - 64.4 °F 61% 30.07 in 6.2 mi WSW 9.2 mph - N/A   Mostly Cloudy
12:00 PM 80 °F - 65 °F 51% 29.87 in 12 mi WSW 12.7 mph - -   Mostly Cloudy
12:00 PM 80.6 °F 82.3 °F 64.4 °F 58% 30.04 in 6.2 mi WSW 12.7 mph - N/A   Mostly Cloudy
1:00 PM 78.8 °F - 64.4 °F 61% 30.02 in 3.1 mi WSW 13.8 mph - N/A Rain , Thunderstorm Light Thunderstorms and Rain
1:15 PM 69.8 °F - 66.2 °F 88% 30.02 in 1.2 mi NNE 18.4 mph - N/A Rain , Thunderstorm Light Thunderstorms and Rain
1:25 PM 69.8 °F - 64.4 °F 83% 30.03 in 0.3 mi NE 18.4 mph - N/A Rain , Thunderstorm Thunderstorms and Rain
1:40 PM 66.2 °F - 64.4 °F 94% 30.02 in 6.2 mi NE 16.1 mph - N/A Rain , Thunderstorm Thunderstorms and Rain
2:00 PM 66.2 °F - 64.4 °F 94% 30.01 in 6.2 mi WSW 6.9 mph - N/A Rain Light Rain
3:00 PM 69 °F - 67 °F 92% 29.87 in 9 mi Calm Calm - -   Partly Cloudy
3:00 PM 68.0 °F - 68.0 °F 100% 29.99 in 6.2 mi Calm Calm - N/A   Mostly Cloudy
4:00 PM 69.8 °F - 69.8 °F 100% 30.00 in 6.2 mi WSW 4.6 mph - N/A   Mostly Cloudy
5:00 PM 71.6 °F - 66.2 °F 83% 30.03 in 6.2 mi Calm Calm - N/A   Mostly Cloudy
6:00 PM 70 °F - 59 °F 61% 29.89 in 12 mi East 6.9 mph - -   Mostly Cloudy
6:00 PM 69.8 °F - 59.0 °F 68% 30.01 in - East 6.9 mph - N/A   Clear
7:00 PM 69.8 °F - 60.8 °F 73% 30.04 in - East 4.6 mph - N/A   Clear
8:00 PM 69.8 °F - 60.8 °F 73% 30.04 in - East 5.8 mph - N/A   Clear
9:00 PM 69 °F - 59 °F 62% 29.90 in 12 mi ENE 5.8 mph - -   Mostly Cloudy
9:00 PM 68.0 °F - 59.0 °F 73% 30.06 in - ENE 5.8 mph - N/A   Clear
10:00 PM 68.0 °F - 60.8 °F 78% 30.06 in - ENE 5.8 mph - N/A   Clear
11:00 PM 68.0 °F - 60.8 °F 78% 30.06 in - ENE 5.8 mph - N/A   Clear